Location: Recife
(8.0585°S, 34.8848°W)
Time: 21:56:56
(UTC-03:00)

Hubble Space Telescope - Pass Details

Date: 02 October 2021
Orbit: 535 x 539 km, 28.5° (Epoch: 26 October)

Event Time Altitude Azimuth Distance (km) Brightness Sun altitude
Rises 18:28:56 0° 259° (W) 2,670 6.0 -19.2°
Reaches altitude 10° 18:32:11 10° 232° (SW) 1,783 4.3 -20.0°
Maximum altitude 18:34:19 14° 201° (SSW) 1,563 3.4 -20.5°
Drops below altitude 10° 18:36:27 10° 170° (S) 1,787 3.4 -21.1°
Enters shadow 18:36:58 - 164° (SSE) 1,897 3.5 -21.2°
